Location: Kaltenbach
(49.2000°N, 7.7500°E)
Time: 22:05:04
(UTC+00:00)

CZ-2D R/B - Pass Details

Date: 24 January 2020
Orbit: 523 x 537 km, 97.4° (Epoch: 16 February)

Event Time Altitude Azimuth Distance (km) Brightness Sun altitude
Rises 17:13:21 0° 137° (SE) 2,658 6.6 -10.1°
Reaches altitude 10° 17:15:39 10° 125° (SE) 1,776 5.6 -10.4°
Maximum altitude 17:18:54 27° 67° (ENE) 1,053 4.2 -10.9°
Drops below altitude 10° 17:22:11 10° 9° (N) 1,796 5.7 -11.4°
Sets 17:24:31 0° 357° (N) 2,694 6.7 -11.8°
